Time,TemperatureF,DewpointF,PressureIn,WindDirection,WindDirectionDegrees,WindSpeedMPH,WindSpeedGustMPH,Humidity,HourlyPrecipIn,Conditions,Clouds,dailyrainin,SoftwareType,DateUTC
2013-03-18 00:10:00,64.9,-37.9,29.57,ESE,112,4.2,-999.0,1,-99.99,,,0.00,Acu-Link.com,2013-03-18 05:10:00,
2013-03-18 00:32:00,64.6,-38.1,29.56,SSE,157,4.2,-999.0,1,-99.99,,,0.00,Acu-Link.com,2013-03-18 05:32:00,
2013-03-18 00:47:00,64.4,-38.2,29.56,South,180,3.7,-999.0,1,-99.99,,,0.00,Acu-Link.com,2013-03-18 05:47:00,
2013-03-18 01:02:00,64.2,-38.3,29.56,SSE,157,3.7,-999.0,1,-99.99,,,0.00,Acu-Link.com,2013-03-18 06:02:00,
2013-03-18 01:17:00,64.2,-38.3,29.56,South,180,4.2,-999.0,1,-99.99,,,0.00,Acu-Link.com,2013-03-18 06:17:00,
2013-03-18 01:32:00,64.2,-38.3,29.56,SSE,157,2.7,-999.0,1,-99.99,,,0.00,Acu-Link.com,2013-03-18 06:32:00,
2013-03-18 01:48:00,64.4,-38.2,29.56,SSW,202,3.2,-999.0,1,-99.99,,,0.00,Acu-Link.com,2013-03-18 06:48:00,
2013-03-18 02:03:00,64.8,-37.9,29.56,South,180,3.2,-999.0,1,-99.99,,,0.00,Acu-Link.com,2013-03-18 07:03:00,
2013-03-18 02:18:00,65.1,-37.8,29.57,South,180,3.2,-999.0,1,-99.99,,,0.00,Acu-Link.com,2013-03-18 07:18:00,
2013-03-18 02:48:00,65.5,-37.5,29.56,SSE,157,4.7,-999.0,1,-99.99,,,0.00,Acu-Link.com,2013-03-18 07:48:00,
2013-03-18 03:03:00,65.5,-37.5,29.56,South,180,4.7,-999.0,1,-99.99,,,0.00,Acu-Link.com,2013-03-18 08:03:00,
2013-03-18 03:18:00,65.5,-37.5,29.55,South,180,6.3,-999.0,1,-99.99,,,0.00,Acu-Link.com,2013-03-18 08:18:00,
2013-03-18 03:33:00,65.5,-37.5,29.55,SSE,157,8.3,-999.0,1,-99.99,,,0.00,Acu-Link.com,2013-03-18 08:33:00,
2013-03-18 03:48:00,64.9,-37.9,29.55,SSE,157,6.8,-999.0,1,-99.99,,,0.00,Acu-Link.com,2013-03-18 08:48:00,
2013-03-18 04:04:00,64.6,-38.1,29.54,SE,135,3.2,-999.0,1,-99.99,,,0.00,Acu-Link.com,2013-03-18 09:04:00,
2013-03-18 04:19:00,64.6,-38.1,29.54,South,180,5.3,-999.0,1,-99.99,,,0.00,Acu-Link.com,2013-03-18 09:19:00,
2013-03-18 04:34:00,64.8,-37.9,29.54,SE,135,2.7,-999.0,1,-99.99,,,0.00,Acu-Link.com,2013-03-18 09:34:00,
2013-03-18 04:49:00,64.8,-37.9,29.54,SSW,202,3.7,-999.0,1,-99.99,,,0.00,Acu-Link.com,2013-03-18 09:49:00,
2013-03-18 05:04:00,64.8,-37.9,29.55,South,180,9.9,-999.0,1,-99.99,,,0.00,Acu-Link.com,2013-03-18 10:04:00,
2013-03-18 05:19:00,64.8,-37.9,29.55,South,180,3.2,-999.0,1,-99.99,,,0.00,Acu-Link.com,2013-03-18 10:19:00,
2013-03-18 05:34:00,64.8,-37.9,29.55,ESE,112,3.2,-999.0,1,-99.99,,,0.00,Acu-Link.com,2013-03-18 10:34:00,
2013-03-18 05:49:00,64.9,-37.9,29.55,SE,135,4.2,-999.0,1,-99.99,,,0.00,Acu-Link.com,2013-03-18 10:49:00,
2013-03-18 06:04:00,64.8,-37.9,29.55,SSE,157,3.7,-999.0,1,-99.99,,,0.00,Acu-Link.com,2013-03-18 11:04:00,
2013-03-18 06:20:00,64.4,-38.2,29.55,South,180,4.2,-999.0,1,-99.99,,,0.00,Acu-Link.com,2013-03-18 11:20:00,
2013-03-18 06:35:00,64.2,-38.3,29.56,SSE,157,2.2,-999.0,1,-99.99,,,0.00,Acu-Link.com,2013-03-18 11:35:00,
2013-03-18 06:50:00,64.2,-38.3,29.56,SSW,202,4.7,-999.0,1,-99.99,,,0.00,Acu-Link.com,2013-03-18 11:50:00,
2013-03-18 07:05:00,64.2,-38.3,29.57,South,180,3.7,-999.0,1,-99.99,,,0.00,Acu-Link.com,2013-03-18 12:05:00,
2013-03-18 07:20:00,64.2,-38.3,29.57,SSE,157,3.7,-999.0,1,-99.99,,,0.00,Acu-Link.com,2013-03-18 12:20:00,
2013-03-18 07:35:00,64.2,-38.3,29.57,South,180,6.3,-999.0,1,-99.99,,,0.00,Acu-Link.com,2013-03-18 12:35:00,
2013-03-18 07:50:00,64.4,-38.2,29.55,SSW,202,4.2,-999.0,1,-99.99,,,0.00,Acu-Link.com,2013-03-18 12:50:00,
2013-03-18 08:05:00,64.9,-37.9,29.57,SE,135,3.7,-999.0,1,-99.99,,,0.00,Acu-Link.com,2013-03-18 13:05:00,
2013-03-18 08:20:00,65.5,-37.5,29.57,SSW,202,2.7,-999.0,1,-99.99,,,0.00,Acu-Link.com,2013-03-18 13:20:00,
2013-03-18 08:36:00,66.2,-37.1,29.58,SW,225,4.7,-999.0,1,-99.99,,,0.00,Acu-Link.com,2013-03-18 13:36:00,
2013-03-18 08:51:00,67.3,-36.4,29.58,South,180,1.7,-999.0,1,-99.99,,,0.00,Acu-Link.com,2013-03-18 13:51:00,
2013-03-18 09:21:00,69.1,-35.4,29.58,South,180,5.3,-999.0,1,-99.99,,,0.00,Acu-Link.com,2013-03-18 14:21:00,
2013-03-18 09:36:00,69.8,-34.9,29.58,South,180,8.9,-999.0,1,-99.99,,,0.00,Acu-Link.com,2013-03-18 14:36:00,
2013-03-18 09:51:00,70.2,-34.7,29.58,South,180,4.7,-999.0,1,-99.99,,,0.00,Acu-Link.com,2013-03-18 14:51:00,
2013-03-18 10:07:00,71.1,-34.2,29.58,ESE,112,8.3,-999.0,1,-99.99,,,0.00,Acu-Link.com,2013-03-18 15:07:00,
2013-03-18 10:22:00,70.5,-34.5,29.59,ESE,112,4.2,-999.0,1,-99.99,,,0.00,Acu-Link.com,2013-03-18 15:22:00,
2013-03-18 10:37:00,72.0,69.5,29.58,South,180,2.2,-999.0,92,-99.99,,,0.00,Acu-Link.com,2013-03-18 15:37:00,
2013-03-18 10:52:00,72.3,7.7,29.57,SSE,157,5.8,-999.0,8,-99.99,,,0.00,Acu-Link.com,2013-03-18 15:52:00,
2013-03-18 11:07:00,73.9,-32.5,29.57,South,180,5.8,-999.0,1,-99.99,,,0.00,Acu-Link.com,2013-03-18 16:07:00,
2013-03-18 11:22:00,74.8,-31.9,29.55,SSE,157,2.2,-999.0,1,-99.99,,,0.00,Acu-Link.com,2013-03-18 16:22:00,
2013-03-18 11:38:00,75.7,-31.4,29.54,SE,135,8.9,-999.0,1,-99.99,,,0.00,Acu-Link.com,2013-03-18 16:38:00,
2013-03-18 11:53:00,76.8,75.3,29.54,SSE,157,9.9,-999.0,95,-99.99,,,0.00,Acu-Link.com,2013-03-18 16:53:00,
2013-03-18 12:08:00,77.9,-30.1,29.53,SSW,202,5.3,-999.0,1,-99.99,,,0.00,Acu-Link.com,2013-03-18 17:08:00,
2013-03-18 12:23:00,77.7,-30.2,29.53,South,180,7.8,-999.0,1,-99.99,,,0.00,Acu-Link.com,2013-03-18 17:23:00,
2013-03-18 12:38:00,79.7,-29.0,29.53,SSW,202,9.9,-999.0,1,-99.99,,,0.00,Acu-Link.com,2013-03-18 17:38:00,
2013-03-18 12:53:00,78.1,-30.0,29.52,SW,225,3.7,-999.0,1,-99.99,,,0.00,Acu-Link.com,2013-03-18 17:53:00,
2013-03-18 13:08:00,79.5,-29.1,29.52,SSW,202,12.5,-999.0,1,-99.99,,,0.00,Acu-Link.com,2013-03-18 18:08:00,
2013-03-18 13:23:00,80.8,-28.4,29.51,West,270,8.9,-999.0,1,-99.99,,,0.00,Acu-Link.com,2013-03-18 18:23:00,
2013-03-18 13:38:00,82.2,-27.5,29.50,SSE,157,10.4,-999.0,1,-99.99,,,0.00,Acu-Link.com,2013-03-18 18:38:00,
2013-03-18 13:54:00,81.1,-28.2,29.50,South,180,4.7,-999.0,1,-99.99,,,0.00,Acu-Link.com,2013-03-18 18:54:00,
2013-03-18 14:09:00,82.6,-27.3,29.48,West,270,5.8,-999.0,1,-99.99,,,0.00,Acu-Link.com,2013-03-18 19:09:00,
2013-03-18 14:24:00,84.6,-26.1,29.47,South,180,4.7,-999.0,1,-99.99,,,0.00,Acu-Link.com,2013-03-18 19:24:00,
2013-03-18 14:39:00,82.2,-27.5,29.47,SSE,157,2.7,-999.0,1,-99.99,,,0.00,Acu-Link.com,2013-03-18 19:39:00,
2013-03-18 14:54:00,81.3,-28.1,29.47,East,90,3.2,-999.0,1,-99.99,,,0.00,Acu-Link.com,2013-03-18 19:54:00,
2013-03-18 15:09:00,83.8,-26.6,29.47,WSW,247,4.7,-999.0,1,-99.99,,,0.00,Acu-Link.com,2013-03-18 20:09:00,
2013-03-18 15:25:00,84.0,-26.5,29.46,NW,315,3.7,-999.0,1,-99.99,,,0.00,Acu-Link.com,2013-03-18 20:25:00,
2013-03-18 15:40:00,81.9,-27.7,29.47,West,270,2.2,-999.0,1,-99.99,,,0.00,Acu-Link.com,2013-03-18 20:40:00,
2013-03-18 15:55:00,73.9,-32.5,29.46,ENE,67,6.3,-999.0,1,-99.99,,,0.00,Acu-Link.com,2013-03-18 20:55:00,
2013-03-18 16:10:00,70.2,69.6,29.42,WSW,247,5.3,-999.0,98,-99.99,,,0.00,Acu-Link.com,2013-03-18 21:10:00,
2013-03-18 16:25:00,61.0,-40.2,29.54,NNW,337,4.7,-999.0,1,-99.99,,,0.02,Acu-Link.com,2013-03-18 21:25:00,
2013-03-18 16:40:00,60.6,-40.5,29.47,NNE,22,0.0,-999.0,1,-99.99,,,0.42,Acu-Link.com,2013-03-18 21:40:00,
2013-03-18 16:55:00,60.8,-40.4,29.55,WNW,292,7.3,-999.0,1,-99.99,,,0.47,Acu-Link.com,2013-03-18 21:55:00,
2013-03-18 17:10:00,61.0,-40.2,29.49,NNE,22,0.0,-999.0,1,-99.99,,,0.49,Acu-Link.com,2013-03-18 22:10:00,
2013-03-18 17:25:00,64.0,25.5,29.48,ESE,112,0.0,-999.0,23,-99.99,,,0.51,Acu-Link.com,2013-03-18 22:25:00,
2013-03-18 17:41:00,65.7,-37.4,29.50,SSW,202,4.2,-999.0,1,-99.99,,,0.51,Acu-Link.com,2013-03-18 22:41:00,
2013-03-18 17:56:00,63.5,-38.7,29.49,SSE,157,3.2,-999.0,1,-99.99,,,0.51,Acu-Link.com,2013-03-18 22:56:00,
2013-03-18 18:41:00,62.2,-39.5,29.54,West,270,0.0,-999.0,1,-99.99,,,0.51,Acu-Link.com,2013-03-18 23:41:00,
2013-03-18 18:56:00,62.2,-39.5,29.53,NE,45,0.0,-999.0,1,-99.99,,,0.51,Acu-Link.com,2013-03-18 23:56:00,
2013-03-18 19:11:00,61.9,-39.7,29.53,NE,45,0.0,-999.0,1,-99.99,,,0.51,Acu-Link.com,2013-03-19 00:11:00,
2013-03-18 19:42:00,61.3,-40.1,29.56,ESE,112,0.0,-999.0,1,-99.99,,,0.51,Acu-Link.com,2013-03-19 00:42:00,
2013-03-18 19:57:00,61.3,-40.1,29.56,NNW,337,0.0,-999.0,1,-99.99,,,0.51,Acu-Link.com,2013-03-19 00:57:00,
2013-03-18 20:12:00,61.7,-39.8,29.59,NE,45,0.0,-999.0,1,-99.99,,,0.51,Acu-Link.com,2013-03-19 01:12:00,
2013-03-18 20:27:00,61.2,-40.1,29.58,NE,45,0.0,-999.0,1,-99.99,,,0.58,Acu-Link.com,2013-03-19 01:27:00,
2013-03-18 20:42:00,60.4,-40.6,29.60,SW,225,0.0,-999.0,1,-99.99,,,0.60,Acu-Link.com,2013-03-19 01:42:00,
2013-03-18 20:57:00,59.9,-40.9,29.61,East,90,0.0,-999.0,1,-99.99,,,0.60,Acu-Link.com,2013-03-19 01:57:00,
2013-03-18 21:12:00,60.1,-40.8,29.65,NW,315,0.0,-999.0,1,-99.99,,,0.60,Acu-Link.com,2013-03-19 02:12:00,
2013-03-18 21:27:00,59.7,-41.0,29.65,NW,315,0.0,-999.0,1,-99.99,,,0.61,Acu-Link.com,2013-03-19 02:27:00,
2013-03-18 21:43:00,59.4,-41.2,29.66,North,0,6.3,-999.0,1,-99.99,,,0.62,Acu-Link.com,2013-03-19 02:43:00,
2013-03-18 21:58:00,58.8,-41.6,29.67,NNW,337,0.0,-999.0,1,-99.99,,,0.67,Acu-Link.com,2013-03-19 02:58:00,
2013-03-18 22:13:00,58.3,-41.9,29.66,North,0,4.7,-999.0,1,-99.99,,,0.71,Acu-Link.com,2013-03-19 03:13:00,
2013-03-18 22:28:00,57.7,-42.3,29.66,North,0,5.8,-999.0,1,-99.99,,,0.72,Acu-Link.com,2013-03-19 03:28:00,
2013-03-18 22:43:00,56.7,-42.9,29.68,North,0,9.4,-999.0,1,-99.99,,,0.72,Acu-Link.com,2013-03-19 03:43:00,
2013-03-18 22:58:00,55.2,-43.8,29.70,NNE,22,5.3,-999.0,1,-99.99,,,0.72,Acu-Link.com,2013-03-19 03:58:00,
2013-03-18 23:13:00,54.7,-44.1,29.70,NNE,22,4.2,-999.0,1,-99.99,,,0.72,Acu-Link.com,2013-03-19 04:13:00,
2013-03-18 23:29:00,54.1,-44.4,29.71,West,270,0.0,-999.0,1,-99.99,,,0.72,Acu-Link.com,2013-03-19 04:29:00,
2013-03-18 23:46:00,53.6,-44.7,29.72,NNW,337,3.7,-999.0,1,-99.99,,,0.72,Acu-Link.com,2013-03-19 04:46:00,